Location: Koszewko
(53.2876°N, 14.9061°E)
Time: 02:00:45
(UTC+00:00)

Cosmos 2360 Rocket - Pass Details

Date: 03 March 2021
Orbit: 832 x 846 km, 71.0° (Epoch: 11 April)

Event Time Altitude Azimuth Distance (km) Brightness Sun altitude
Rises 20:23:59 0° 252° (WSW) 3,392 5.8 -32.1°
Reaches altitude 10° 20:26:47 10° 264° (W) 2,463 5.1 -32.4°
Maximum altitude 20:31:36 28° 323° (NW) 1,540 4.0 -33.0°
Drops below altitude 10° 20:36:28 10° 21° (NNE) 2,479 4.8 -33.5°
Sets 20:39:17 0° 33° (NNE) 3,418 5.5 -33.9°
